owner,sensor,date,latitude,longitude,air_temperature,qcFlag 
ADCP,ioos:station:wmo:42395:1,2017-05-01T00:20:00Z,26.4040,-90.7920,25.3,11111222 
ADCP,ioos:station:wmo:42395:1,2017-05-01T00:40:00Z,26.4040,-90.7920,25.3,11111222 
ADCP,ioos:station:wmo:42395:1,2017-05-01T01:00:00Z,26.4040,-90.7920,25.3,11111222 
ADCP,ioos:station:wmo:42395:1,2017-05-01T01:20:00Z,26.4040,-90.7920,25.4,11111222 
ADCP,ioos:station:wmo:42395:1,2017-05-01T01:40:00Z,26.4040,-90.7920,25.4,11111222 
ADCP,ioos:station:wmo:42395:1,2017-05-01T02:00:00Z,26.4040,-90.7920,25.4,11111222 
ADCP,ioos:station:wmo:42395:1,2017-05-01T02:20:00Z,26.4040,-90.7920,25.5,11111222 
ADCP,ioos:station:wmo:42395:1,2017-05-01T02:40:00Z,26.4040,-90.7920,24.9,11111222 
ADCP,ioos:station:wmo:42395:1,2017-05-01T03:20:00Z,26.4040,-90.7920,23.5,11111222 
ADCP,ioos:station:wmo:42395:1,2017-05-01T03:40:00Z,26.4040,-90.7920,23.3,11111222 
ADCP,ioos:station:wmo:42395:1,2017-05-01T04:20:00Z,26.4040,-90.7920,23.3,11111222 
ADCP,ioos:station:wmo:42395:1,2017-05-01T04:40:00Z,26.4040,-90.7920,22.8,11111222 
ADCP,ioos:station:wmo:42395:1,2017-05-01T05:00:00Z,26.4040,-90.7920,22.9,11111222 
ADCP,ioos:station:wmo:42395:1,2017-05-01T05:20:00Z,26.4040,-90.7920,22.9,11111222 
ADCP,ioos:station:wmo:42395:1,2017-05-01T05:40:00Z,26.4040,-90.7920,23.0,11111222 
ADCP,ioos:station:wmo:42395:1,2017-05-01T06:40:00Z,26.4040,-90.7920,22.4,11111222 
ADCP,ioos:station:wmo:42395:1,2017-05-01T07:20:00Z,26.4040,-90.7920,22.6,11111222 
ADCP,ioos:station:wmo:42395:1,2017-05-01T07:40:00Z,26.4040,-90.7920,22.4,11111222 
ADCP,ioos:station:wmo:42395:1,2017-05-01T08:00:00Z,26.4040,-90.7920,22.3,11111222 
ADCP,ioos:station:wmo:42395:1,2017-05-01T08:20:00Z,26.4040,-90.7920,22.2,11111222 
ADCP,ioos:station:wmo:42395:1,2017-05-01T08:40:00Z,26.4040,-90.7920,22.4,11111222 
ADCP,ioos:station:wmo:42395:1,2017-05-01T09:20:00Z,26.4040,-90.7920,22.8,11111222 
ADCP,ioos:station:wmo:42395:1,2017-05-01T09:40:00Z,26.4040,-90.7920,23.6,11111222 
ADCP,ioos:station:wmo:42395:1,2017-05-01T10:20:00Z,26.4040,-90.7920,23.7,11111222 
ADCP,ioos:station:wmo:42395:1,2017-05-01T10:40:00Z,26.4040,-90.7920,23.8,11111222 
ADCP,ioos:station:wmo:42395:1,2017-05-01T11:20:00Z,26.4040,-90.7920,23.8,11111222 
ADCP,ioos:station:wmo:42395:1,2017-05-01T11:40:00Z,26.4040,-90.7920,23.8,11111222 
ADCP,ioos:station:wmo:42395:1,2017-05-01T12:00:00Z,26.4040,-90.7920,23.6,11111222 
ADCP,ioos:station:wmo:42395:1,2017-05-01T12:20:00Z,26.4040,-90.7920,23.6,11111222 
ADCP,ioos:station:wmo:42395:1,2017-05-01T12:40:00Z,26.4040,-90.7920,23.7,11111222 
ADCP,ioos:station:wmo:42395:1,2017-05-01T13:20:00Z,26.4040,-90.7920,24.0,11111222 
ADCP,ioos:station:wmo:42395:1,2017-05-01T14:40:00Z,26.4040,-90.7920,24.2,11111222 
ADCP,ioos:station:wmo:42395:1,2017-05-01T15:20:00Z,26.4040,-90.7920,24.1,11111222 
ADCP,ioos:station:wmo:42395:1,2017-05-01T15:40:00Z,26.4040,-90.7920,24.1,11111222 
ADCP,ioos:station:wmo:42395:1,2017-05-01T16:00:00Z,26.4040,-90.7920,24.0,11111222 
ADCP,ioos:station:wmo:42395:1,2017-05-01T16:20:00Z,26.4040,-90.7920,24.0,11111222 
ADCP,ioos:station:wmo:42395:1,2017-05-01T16:40:00Z,26.4040,-90.7920,24.1,11111222 
ADCP,ioos:station:wmo:42395:1,2017-05-01T17:00:00Z,26.4040,-90.7920,24.1,11111222 
ADCP,ioos:station:wmo:42395:1,2017-05-01T17:20:00Z,26.4040,-90.7920,24.1,11111222 
ADCP,ioos:station:wmo:42395:1,2017-05-01T17:40:00Z,26.4040,-90.7920,24.0,11111222 
ADCP,ioos:station:wmo:42395:1,2017-05-01T18:00:00Z,26.4040,-90.7920,24.0,11111222 
ADCP,ioos:station:wmo:42395:1,2017-05-01T18:20:00Z,26.4040,-90.7920,24.1,11111222 
ADCP,ioos:station:wmo:42395:1,2017-05-01T19:20:00Z,26.4040,-90.7920,24.1,11111222 
ADCP,ioos:station:wmo:42395:1,2017-05-01T19:40:00Z,26.4040,-90.7920,24.1,11111222 
ADCP,ioos:station:wmo:42395:1,2017-05-01T20:20:00Z,26.4040,-90.7920,24.2,11111222 
ADCP,ioos:station:wmo:42395:1,2017-05-01T20:40:00Z,26.4040,-90.7920,24.2,11111222 
ADCP,ioos:station:wmo:42395:1,2017-05-01T21:00:00Z,26.4040,-90.7920,24.3,11111222 
ADCP,ioos:station:wmo:42395:1,2017-05-01T21:20:00Z,26.4040,-90.7920,24.3,11111222 
ADCP,ioos:station:wmo:42395:1,2017-05-01T21:40:00Z,26.4040,-90.7920,24.3,11111222 
ADCP,ioos:station:wmo:42395:1,2017-05-01T22:00:00Z,26.4040,-90.7920,24.3,11111222 
ADCP,ioos:station:wmo:42395:1,2017-05-01T22:20:00Z,26.4040,-90.7920,24.2,11111222 
ADCP,ioos:station:wmo:42395:1,2017-05-01T22:40:00Z,26.4040,-90.7920,24.2,11111222 
ADCP,ioos:station:wmo:42395:1,2017-05-01T23:00:00Z,26.4040,-90.7920,24.2,11111222 
ADCP,ioos:station:wmo:42395:1,2017-05-01T23:20:00Z,26.4040,-90.7920,24.2,11111222 
ADCP,ioos:station:wmo:42395:1,2017-05-01T23:40:00Z,26.4040,-90.7920,24.1,11111222 
ADCP,ioos:station:wmo:42395:1,2017-05-02T00:40:00Z,26.4040,-90.7920,24.0,11111222 
ADCP,ioos:station:wmo:42395:1,2017-05-02T01:20:00Z,26.4040,-90.7920,24.0,11111222 
ADCP,ioos:station:wmo:42395:1,2017-05-02T01:40:00Z,26.4040,-90.7920,24.0,11111222 
ADCP,ioos:station:wmo:42395:1,2017-05-02T02:20:00Z,26.4040,-90.7920,24.2,11111222 
ADCP,ioos:station:wmo:42395:1,2017-05-02T02:40:00Z,26.4040,-90.7920,24.3,11111222 
ADCP,ioos:station:wmo:42395:1,2017-05-02T03:00:00Z,26.4040,-90.7920,24.5,11111222 
ADCP,ioos:station:wmo:42395:1,2017-05-02T03:20:00Z,26.4040,-90.7920,24.5,11111222 
ADCP,ioos:station:wmo:42395:1,2017-05-02T03:40:00Z,26.4040,-90.7920,24.5,11111222 
ADCP,ioos:station:wmo:42395:1,2017-05-02T04:00:00Z,26.4040,-90.7920,24.5,11111222 
ADCP,ioos:station:wmo:42395:1,2017-05-02T04:20:00Z,26.4040,-90.7920,24.5,11111222 
ADCP,ioos:station:wmo:42395:1,2017-05-02T04:40:00Z,26.4040,-90.7920,24.5,11111222 
ADCP,ioos:station:wmo:42395:1,2017-05-02T05:00:00Z,26.4040,-90.7920,24.5,11111222 
ADCP,ioos:station:wmo:42395:1,2017-05-02T05:20:00Z,26.4040,-90.7920,24.5,11111222 
ADCP,ioos:station:wmo:42395:1,2017-05-02T05:40:00Z,26.4040,-90.7920,24.5,11111222 
ADCP,ioos:station:wmo:42395:1,2017-05-02T06:00:00Z,26.4040,-90.7920,24.5,11111222 
ADCP,ioos:station:wmo:42395:1,2017-05-02T06:20:00Z,26.4040,-90.7920,24.5,11111222 
ADCP,ioos:station:wmo:42395:1,2017-05-02T06:40:00Z,26.4040,-90.7920,24.6,11111222 
ADCP,ioos:station:wmo:42395:1,2017-05-02T07:40:00Z,26.4040,-90.7920,24.7,11111222 
ADCP,ioos:station:wmo:42395:1,2017-05-02T08:20:00Z,26.4040,-90.7920,24.8,11111222 
ADCP,ioos:station:wmo:42395:1,2017-05-02T08:40:00Z,26.4040,-90.7920,24.8,11111222 
ADCP,ioos:station:wmo:42395:1,2017-05-02T09:20:00Z,26.4040,-90.7920,24.7,11111222 
ADCP,ioos:station:wmo:42395:1,2017-05-02T09:40:00Z,26.4040,-90.7920,24.7,11111222 
ADCP,ioos:station:wmo:42395:1,2017-05-02T10:20:00Z,26.4040,-90.7920,24.7,11111222 
ADCP,ioos:station:wmo:42395:1,2017-05-02T10:40:00Z,26.4040,-90.7920,24.7,11111222 
ADCP,ioos:station:wmo:42395:1,2017-05-02T11:20:00Z,26.4040,-90.7920,24.7,11111222 
ADCP,ioos:station:wmo:42395:1,2017-05-02T11:40:00Z,26.4040,-90.7920,24.7,11111222 
ADCP,ioos:station:wmo:42395:1,2017-05-02T12:00:00Z,26.4040,-90.7920,24.7,11111222 
ADCP,ioos:station:wmo:42395:1,2017-05-02T12:20:00Z,26.4040,-90.7920,24.7,11111222 
ADCP,ioos:station:wmo:42395:1,2017-05-02T12:40:00Z,26.4040,-90.7920,24.8,11111222 
ADCP,ioos:station:wmo:42395:1,2017-05-02T13:00:00Z,26.4040,-90.7920,24.8,11111222 
ADCP,ioos:station:wmo:42395:1,2017-05-02T13:20:00Z,26.4040,-90.7920,24.8,11111222 
ADCP,ioos:station:wmo:42395:1,2017-05-02T13:40:00Z,26.4040,-90.7920,24.8,11111222 
ADCP,ioos:station:wmo:42395:1,2017-05-02T14:00:00Z,26.4040,-90.7920,24.8,11111222 
ADCP,ioos:station:wmo:42395:1,2017-05-02T14:20:00Z,26.4040,-90.7920,24.9,11111222 
ADCP,ioos:station:wmo:42395:1,2017-05-02T14:40:00Z,26.4040,-90.7920,25.0,11111222 
ADCP,ioos:station:wmo:42395:1,2017-05-02T15:00:00Z,26.4040,-90.7920,25.0,11111222 
ADCP,ioos:station:wmo:42395:1,2017-05-02T15:20:00Z,26.4040,-90.7920,25.0,11111222 
ADCP,ioos:station:wmo:42395:1,2017-05-02T15:40:00Z,26.4040,-90.7920,25.2,11111222 
ADCP,ioos:station:wmo:42395:1,2017-05-02T16:00:00Z,26.4040,-90.7920,25.2,11111222 
ADCP,ioos:station:wmo:42395:1,2017-05-02T16:20:00Z,26.4040,-90.7920,25.2,11111222 
ADCP,ioos:station:wmo:42395:1,2017-05-02T16:40:00Z,26.4040,-90.7920,25.2,11111222 
ADCP,ioos:station:wmo:42395:1,2017-05-02T17:00:00Z,26.4040,-90.7920,25.2,11111222 
ADCP,ioos:station:wmo:42395:1,2017-05-02T17:20:00Z,26.4040,-90.7920,25.2,11111222 
ADCP,ioos:station:wmo:42395:1,2017-05-02T17:40:00Z,26.4040,-90.7920,25.1,11111222 
ADCP,ioos:station:wmo:42395:1,2017-05-02T18:00:00Z,26.4040,-90.7920,25.2,11111222 
ADCP,ioos:station:wmo:42395:1,2017-05-02T18:20:00Z,26.4040,-90.7920,25.1,11111222 
ADCP,ioos:station:wmo:42395:1,2017-05-02T18:40:00Z,26.4040,-90.7920,25.1,11111222 
ADCP,ioos:station:wmo:42395:1,2017-05-02T19:00:00Z,26.4040,-90.7920,25.1,11111222 
ADCP,ioos:station:wmo:42395:1,2017-05-02T19:20:00Z,26.4040,-90.7920,25.2,11111222 
ADCP,ioos:station:wmo:42395:1,2017-05-02T19:40:00Z,26.4040,-90.7920,25.1,11111222 
ADCP,ioos:station:wmo:42395:1,2017-05-02T20:20:00Z,26.4040,-90.7920,25.2,11111222 
ADCP,ioos:station:wmo:42395:1,2017-05-02T20:40:00Z,26.4040,-90.7920,25.2,11111222 
ADCP,ioos:station:wmo:42395:1,2017-05-02T21:00:00Z,26.4040,-90.7920,25.2,11111222 
ADCP,ioos:station:wmo:42395:1,2017-05-02T21:20:00Z,26.4040,-90.7920,25.2,11111222 
ADCP,ioos:station:wmo:42395:1,2017-05-02T21:40:00Z,26.4040,-90.7920,25.2,11111222 
ADCP,ioos:station:wmo:42395:1,2017-05-02T22:00:00Z,26.4040,-90.7920,25.3,11111222 
ADCP,ioos:station:wmo:42395:1,2017-05-02T22:20:00Z,26.4040,-90.7920,25.3,11111222 
ADCP,ioos:station:wmo:42395:1,2017-05-02T22:40:00Z,26.4040,-90.7920,25.2,11111222 
ADCP,ioos:station:wmo:42395:1,2017-05-02T23:00:00Z,26.4040,-90.7920,25.2,11111222 
ADCP,ioos:station:wmo:42395:1,2017-05-02T23:20:00Z,26.4040,-90.7920,25.2,11111222 
ADCP,ioos:station:wmo:42395:1,2017-05-02T23:40:00Z,26.4040,-90.7920,25.1,11111222 
ADCP,ioos:station:wmo:42395:1,2017-05-03T00:00:00Z,26.4040,-90.7920,25.1,11111222 
ADCP,ioos:station:wmo:42395:1,2017-05-03T00:20:00Z,26.4040,-90.7920,25.1,11111222 
ADCP,ioos:station:wmo:42395:1,2017-05-03T00:40:00Z,26.4040,-90.7920,25.0,11111222 
ADCP,ioos:station:wmo:42395:1,2017-05-03T01:00:00Z,26.4040,-90.7920,25.0,11111222 
ADCP,ioos:station:wmo:42395:1,2017-05-03T01:20:00Z,26.4040,-90.7920,25.0,11111222 
ADCP,ioos:station:wmo:42395:1,2017-05-03T01:40:00Z,26.4040,-90.7920,25.0,11111222 
ADCP,ioos:station:wmo:42395:1,2017-05-03T02:00:00Z,26.4040,-90.7920,25.0,11111222 
ADCP,ioos:station:wmo:42395:1,2017-05-03T02:20:00Z,26.4040,-90.7920,25.0,11111222 
ADCP,ioos:station:wmo:42395:1,2017-05-03T02:40:00Z,26.4040,-90.7920,25.0,11111222 
ADCP,ioos:station:wmo:42395:1,2017-05-03T03:20:00Z,26.4040,-90.7920,25.0,11111222 
ADCP,ioos:station:wmo:42395:1,2017-05-03T03:40:00Z,26.4040,-90.7920,25.0,11111222 
ADCP,ioos:station:wmo:42395:1,2017-05-03T04:00:00Z,26.4040,-90.7920,25.0,11111222 
ADCP,ioos:station:wmo:42395:1,2017-05-03T04:20:00Z,26.4040,-90.7920,25.0,11111222 
ADCP,ioos:station:wmo:42395:1,2017-05-03T04:40:00Z,26.4040,-90.7920,25.1,11111222 
ADCP,ioos:station:wmo:42395:1,2017-05-03T05:00:00Z,26.4040,-90.7920,25.0,11111222 
ADCP,ioos:station:wmo:42395:1,2017-05-03T05:20:00Z,26.4040,-90.7920,25.0,11111222 
ADCP,ioos:station:wmo:42395:1,2017-05-03T05:40:00Z,26.4040,-90.7920,25.1,11111222 
ADCP,ioos:station:wmo:42395:1,2017-05-03T06:00:00Z,26.4040,-90.7920,25.0,11111222 
ADCP,ioos:station:wmo:42395:1,2017-05-03T06:20:00Z,26.4040,-90.7920,25.0,11111222 
ADCP,ioos:station:wmo:42395:1,2017-05-03T06:40:00Z,26.4040,-90.7920,25.0,11111222 
ADCP,ioos:station:wmo:42395:1,2017-05-03T07:00:00Z,26.4040,-90.7920,25.0,11111222 
ADCP,ioos:station:wmo:42395:1,2017-05-03T07:20:00Z,26.4040,-90.7920,25.0,11111222 
ADCP,ioos:station:wmo:42395:1,2017-05-03T07:40:00Z,26.4040,-90.7920,24.9,11111222 
ADCP,ioos:station:wmo:42395:1,2017-05-03T08:00:00Z,26.4040,-90.7920,24.9,11111222 
ADCP,ioos:station:wmo:42395:1,2017-05-03T08:20:00Z,26.4040,-90.7920,24.9,11111222 
ADCP,ioos:station:wmo:42395:1,2017-05-03T08:40:00Z,26.4040,-90.7920,24.8,11111222 
ADCP,ioos:station:wmo:42395:1,2017-05-03T09:00:00Z,26.4040,-90.7920,24.9,11111222 
ADCP,ioos:station:wmo:42395:1,2017-05-03T09:20:00Z,26.4040,-90.7920,24.9,11111222 
ADCP,ioos:station:wmo:42395:1,2017-05-03T09:40:00Z,26.4040,-90.7920,24.9,11111222 
ADCP,ioos:station:wmo:42395:1,2017-05-03T10:00:00Z,26.4040,-90.7920,24.9,11111222 
ADCP,ioos:station:wmo:42395:1,2017-05-03T10:20:00Z,26.4040,-90.7920,25.0,11111222 
ADCP,ioos:station:wmo:42395:1,2017-05-03T10:40:00Z,26.4040,-90.7920,25.0,11111222 
ADCP,ioos:station:wmo:42395:1,2017-05-03T11:00:00Z,26.4040,-90.7920,25.1,11111222 
ADCP,ioos:station:wmo:42395:1,2017-05-03T11:20:00Z,26.4040,-90.7920,25.1,11111222 
ADCP,ioos:station:wmo:42395:1,2017-05-03T11:40:00Z,26.4040,-90.7920,25.0,11111222 
ADCP,ioos:station:wmo:42395:1,2017-05-03T12:20:00Z,26.4040,-90.7920,25.3,11111222 
ADCP,ioos:station:wmo:42395:1,2017-05-03T12:40:00Z,26.4040,-90.7920,25.4,11111222 
ADCP,ioos:station:wmo:42395:1,2017-05-03T13:20:00Z,26.4040,-90.7920,25.7,11111222 
ADCP,ioos:station:wmo:42395:1,2017-05-03T13:40:00Z,26.4040,-90.7920,25.7,11111222 
ADCP,ioos:station:wmo:42395:1,2017-05-03T14:20:00Z,26.4040,-90.7920,25.8,11111222 
ADCP,ioos:station:wmo:42395:1,2017-05-03T14:40:00Z,26.4040,-90.7920,25.8,11111222 
ADCP,ioos:station:wmo:42395:1,2017-05-03T15:20:00Z,26.4040,-90.7920,25.9,11111222 
ADCP,ioos:station:wmo:42395:1,2017-05-03T16:40:00Z,26.4040,-90.7920,25.7,11111222 
ADCP,ioos:station:wmo:42395:1,2017-05-03T17:00:00Z,26.4040,-90.7920,25.8,11111222 
ADCP,ioos:station:wmo:42395:1,2017-05-03T17:20:00Z,26.4040,-90.7920,25.7,11111222 
ADCP,ioos:station:wmo:42395:1,2017-05-03T17:40:00Z,26.4040,-90.7920,25.7,11111222 
ADCP,ioos:station:wmo:42395:1,2017-05-03T18:00:00Z,26.4040,-90.7920,25.7,11111222 
ADCP,ioos:station:wmo:42395:1,2017-05-03T18:20:00Z,26.4040,-90.7920,25.7,11111222 
ADCP,ioos:station:wmo:42395:1,2017-05-03T18:40:00Z,26.4040,-90.7920,25.7,11111222 
ADCP,ioos:station:wmo:42395:1,2017-05-03T19:00:00Z,26.4040,-90.7920,25.7,11111222 
ADCP,ioos:station:wmo:42395:1,2017-05-03T19:20:00Z,26.4040,-90.7920,25.7,11111222 
ADCP,ioos:station:wmo:42395:1,2017-05-03T19:40:00Z,26.4040,-90.7920,25.7,11111222 
ADCP,ioos:station:wmo:42395:1,2017-05-03T20:00:00Z,26.4040,-90.7920,25.7,11111222 
ADCP,ioos:station:wmo:42395:1,2017-05-03T20:20:00Z,26.4040,-90.7920,25.6,11111222 
ADCP,ioos:station:wmo:42395:1,2017-05-03T20:40:00Z,26.4040,-90.7920,25.7,11111222 
ADCP,ioos:station:wmo:42395:1,2017-05-03T21:20:00Z,26.4040,-90.7920,25.7,11111222 
ADCP,ioos:station:wmo:42395:1,2017-05-03T21:40:00Z,26.4040,-90.7920,25.7,11111222 
ADCP,ioos:station:wmo:42395:1,2017-05-03T22:20:00Z,26.4040,-90.7920,25.7,11111222 
ADCP,ioos:station:wmo:42395:1,2017-05-03T23:40:00Z,26.4040,-90.7920,25.6,11111222 
ADCP,ioos:station:wmo:42395:1,2017-05-04T00:00:00Z,26.4040,-90.7920,25.6,11111222 
ADCP,ioos:station:wmo:42395:1,2017-05-04T00:20:00Z,26.4040,-90.7920,25.5,11111222 
ADCP,ioos:station:wmo:42395:1,2017-05-04T00:40:00Z,26.4040,-90.7920,25.5,11111222 
ADCP,ioos:station:wmo:42395:1,2017-05-04T01:00:00Z,26.4040,-90.7920,25.5,11111222 
ADCP,ioos:station:wmo:42395:1,2017-05-04T01:20:00Z,26.4040,-90.7920,25.4,11111222 
ADCP,ioos:station:wmo:42395:1,2017-05-04T01:40:00Z,26.4040,-90.7920,25.4,11111222 
ADCP,ioos:station:wmo:42395:1,2017-05-04T02:00:00Z,26.4040,-90.7920,25.4,11111222 
ADCP,ioos:station:wmo:42395:1,2017-05-04T02:20:00Z,26.4040,-90.7920,25.4,11111222 
ADCP,ioos:station:wmo:42395:1,2017-05-04T02:40:00Z,26.4040,-90.7920,25.4,11111222 
ADCP,ioos:station:wmo:42395:1,2017-05-04T03:20:00Z,26.4040,-90.7920,25.4,11111222 
ADCP,ioos:station:wmo:42395:1,2017-05-04T03:40:00Z,26.4040,-90.7920,25.4,11111222 
ADCP,ioos:station:wmo:42395:1,2017-05-04T05:00:00Z,26.4040,-90.7920,25.3,11111222 
ADCP,ioos:station:wmo:42395:1,2017-05-04T05:20:00Z,26.4040,-90.7920,25.3,11111222 
ADCP,ioos:station:wmo:42395:1,2017-05-04T05:40:00Z,26.4040,-90.7920,25.2,11111222 
ADCP,ioos:station:wmo:42395:1,2017-05-04T06:00:00Z,26.4040,-90.7920,25.2,11111222 
ADCP,ioos:station:wmo:42395:1,2017-05-04T06:20:00Z,26.4040,-90.7920,25.3,11111222 
ADCP,ioos:station:wmo:42395:1,2017-05-04T06:40:00Z,26.4040,-90.7920,25.3,11111222 
ADCP,ioos:station:wmo:42395:1,2017-05-04T07:00:00Z,26.4040,-90.7920,25.3,11111222 
ADCP,ioos:station:wmo:42395:1,2017-05-04T07:20:00Z,26.4040,-90.7920,25.3,11111222 
ADCP,ioos:station:wmo:42395:1,2017-05-04T07:40:00Z,26.4040,-90.7920,25.3,11111222 
ADCP,ioos:station:wmo:42395:1,2017-05-04T08:20:00Z,26.4040,-90.7920,25.4,11111222 
ADCP,ioos:station:wmo:42395:1,2017-05-04T08:40:00Z,26.4040,-90.7920,25.3,11111222 
ADCP,ioos:station:wmo:42395:1,2017-05-04T09:40:00Z,26.4040,-90.7920,25.2,11111222 
ADCP,ioos:station:wmo:42395:1,2017-05-04T10:00:00Z,26.4040,-90.7920,25.2,11111222 
ADCP,ioos:station:wmo:42395:1,2017-05-04T10:20:00Z,26.4040,-90.7920,25.1,11111222 
ADCP,ioos:station:wmo:42395:1,2017-05-04T10:40:00Z,26.4040,-90.7920,25.1,11111222 
ADCP,ioos:station:wmo:42395:1,2017-05-04T11:00:00Z,26.4040,-90.7920,24.1,11111222 
ADCP,ioos:station:wmo:42395:1,2017-05-04T11:20:00Z,26.4040,-90.7920,22.7,11111222 
ADCP,ioos:station:wmo:42395:1,2017-05-04T11:40:00Z,26.4040,-90.7920,22.2,11111222 
ADCP,ioos:station:wmo:42395:1,2017-05-04T12:00:00Z,26.4040,-90.7920,22.2,11111222 
ADCP,ioos:station:wmo:42395:1,2017-05-04T12:20:00Z,26.4040,-90.7920,20.1,11111222 
ADCP,ioos:station:wmo:42395:1,2017-05-04T12:40:00Z,26.4040,-90.7920,21.2,11111222 
ADCP,ioos:station:wmo:42395:1,2017-05-04T14:00:00Z,26.4040,-90.7920,22.1,11111222 
ADCP,ioos:station:wmo:42395:1,2017-05-04T14:20:00Z,26.4040,-90.7920,22.2,11111222 
ADCP,ioos:station:wmo:42395:1,2017-05-04T14:40:00Z,26.4040,-90.7920,22.5,11111222 
ADCP,ioos:station:wmo:42395:1,2017-05-04T15:00:00Z,26.4040,-90.7920,22.6,11111222 
ADCP,ioos:station:wmo:42395:1,2017-05-04T15:20:00Z,26.4040,-90.7920,22.9,11111222 
ADCP,ioos:station:wmo:42395:1,2017-05-04T15:40:00Z,26.4040,-90.7920,23.2,11111222 
ADCP,ioos:station:wmo:42395:1,2017-05-04T16:20:00Z,26.4040,-90.7920,23.5,11111222 
ADCP,ioos:station:wmo:42395:1,2017-05-04T16:40:00Z,26.4040,-90.7920,23.6,11111222 
ADCP,ioos:station:wmo:42395:1,2017-05-04T17:40:00Z,26.4040,-90.7920,23.5,11111222 
ADCP,ioos:station:wmo:42395:1,2017-05-04T18:00:00Z,26.4040,-90.7920,23.5,11111222 
ADCP,ioos:station:wmo:42395:1,2017-05-04T18:20:00Z,26.4040,-90.7920,23.8,11111222 
ADCP,ioos:station:wmo:42395:1,2017-05-04T18:40:00Z,26.4040,-90.7920,23.8,11111222 
ADCP,ioos:station:wmo:42395:1,2017-05-04T19:00:00Z,26.4040,-90.7920,23.8,11111222 
ADCP,ioos:station:wmo:42395:1,2017-05-04T19:20:00Z,26.4040,-90.7920,24.3,11111222 
ADCP,ioos:station:wmo:42395:1,2017-05-04T19:40:00Z,26.4040,-90.7920,23.8,11111222 
ADCP,ioos:station:wmo:42395:1,2017-05-04T20:20:00Z,26.4040,-90.7920,22.9,11111222 
ADCP,ioos:station:wmo:42395:1,2017-05-04T21:20:00Z,26.4040,-90.7920,23.3,11111222 
ADCP,ioos:station:wmo:42395:1,2017-05-04T21:40:00Z,26.4040,-90.7920,23.0,11111222 
ADCP,ioos:station:wmo:42395:1,2017-05-04T22:00:00Z,26.4040,-90.7920,22.8,11111222 
ADCP,ioos:station:wmo:42395:1,2017-05-04T22:20:00Z,26.4040,-90.7920,22.7,11111222 
ADCP,ioos:station:wmo:42395:1,2017-05-04T22:40:00Z,26.4040,-90.7920,22.6,11111222 
ADCP,ioos:station:wmo:42395:1,2017-05-04T23:20:00Z,26.4040,-90.7920,22.8,11111222 
ADCP,ioos:station:wmo:42395:1,2017-05-05T00:20:00Z,26.4040,-90.7920,22.1,11111222 
ADCP,ioos:station:wmo:42395:1,2017-05-05T00:40:00Z,26.4040,-90.7920,21.9,11111222 
ADCP,ioos:station:wmo:42395:1,2017-05-05T01:00:00Z,26.4040,-90.7920,21.8,11111222 
ADCP,ioos:station:wmo:42395:1,2017-05-05T01:20:00Z,26.4040,-90.7920,21.7,11111222 
ADCP,ioos:station:wmo:42395:1,2017-05-05T01:40:00Z,26.4040,-90.7920,21.7,11111222 
ADCP,ioos:station:wmo:42395:1,2017-05-05T02:20:00Z,26.4040,-90.7920,21.9,11111222 
ADCP,ioos:station:wmo:42395:1,2017-05-05T03:40:00Z,26.4040,-90.7920,21.6,11111222 
ADCP,ioos:station:wmo:42395:1,2017-05-05T04:00:00Z,26.4040,-90.7920,21.5,11111222 
ADCP,ioos:station:wmo:42395:1,2017-05-05T04:20:00Z,26.4040,-90.7920,21.5,11111222 
ADCP,ioos:station:wmo:42395:1,2017-05-05T04:40:00Z,26.4040,-90.7920,21.4,11111222 
ADCP,ioos:station:wmo:42395:1,2017-05-05T05:20:00Z,26.4040,-90.7920,21.2,11111222 
ADCP,ioos:station:wmo:42395:1,2017-05-05T06:20:00Z,26.4040,-90.7920,21.1,11111222 
ADCP,ioos:station:wmo:42395:1,2017-05-05T06:40:00Z,26.4040,-90.7920,21.2,11111222 
ADCP,ioos:station:wmo:42395:1,2017-05-05T07:00:00Z,26.4040,-90.7920,21.1,11111222 
ADCP,ioos:station:wmo:42395:1,2017-05-05T07:20:00Z,26.4040,-90.7920,21.0,11111222 
ADCP,ioos:station:wmo:42395:1,2017-05-05T07:40:00Z,26.4040,-90.7920,20.9,11111222 
ADCP,ioos:station:wmo:42395:1,2017-05-05T08:20:00Z,26.4040,-90.7920,21.0,11111222 
ADCP,ioos:station:wmo:42395:1,2017-05-05T09:00:00Z,26.4040,-90.7920,21.1,11111222 
ADCP,ioos:station:wmo:42395:1,2017-05-05T09:20:00Z,26.4040,-90.7920,21.2,11111222 
ADCP,ioos:station:wmo:42395:1,2017-05-05T09:40:00Z,26.4040,-90.7920,21.4,11111222 
ADCP,ioos:station:wmo:42395:1,2017-05-05T10:00:00Z,26.4040,-90.7920,21.5,11111222 
ADCP,ioos:station:wmo:42395:1,2017-05-05T10:20:00Z,26.4040,-90.7920,21.6,11111222 
ADCP,ioos:station:wmo:42395:1,2017-05-05T10:40:00Z,26.4040,-90.7920,21.7,11111222 
ADCP,ioos:station:wmo:42395:1,2017-05-05T11:40:00Z,26.4040,-90.7920,22.1,11111222 
ADCP,ioos:station:wmo:42395:1,2017-05-05T12:00:00Z,26.4040,-90.7920,22.2,11111222 
ADCP,ioos:station:wmo:42395:1,2017-05-05T12:20:00Z,26.4040,-90.7920,22.2,11111222 
ADCP,ioos:station:wmo:42395:1,2017-05-05T12:40:00Z,26.4040,-90.7920,22.4,11111222 
ADCP,ioos:station:wmo:42395:1,2017-05-05T13:20:00Z,26.4040,-90.7920,22.5,11111222 
ADCP,ioos:station:wmo:42395:1,2017-05-05T14:00:00Z,26.4040,-90.7920,22.6,11111222 
ADCP,ioos:station:wmo:42395:1,2017-05-05T14:20:00Z,26.4040,-90.7920,22.7,11111222 
ADCP,ioos:station:wmo:42395:1,2017-05-05T14:40:00Z,26.4040,-90.7920,22.8,11111222 
ADCP,ioos:station:wmo:42395:1,2017-05-05T15:00:00Z,26.4040,-90.7920,22.8,11111222 
ADCP,ioos:station:wmo:42395:1,2017-05-05T15:20:00Z,26.4040,-90.7920,22.8,11111222 
ADCP,ioos:station:wmo:42395:1,2017-05-05T15:40:00Z,26.4040,-90.7920,22.8,11111222 
ADCP,ioos:station:wmo:42395:1,2017-05-05T16:40:00Z,26.4040,-90.7920,22.8,11111222 
ADCP,ioos:station:wmo:42395:1,2017-05-05T17:00:00Z,26.4040,-90.7920,22.8,11111222 
ADCP,ioos:station:wmo:42395:1,2017-05-05T17:20:00Z,26.4040,-90.7920,22.7,11111222 
ADCP,ioos:station:wmo:42395:1,2017-05-05T17:40:00Z,26.4040,-90.7920,22.6,11111222 
ADCP,ioos:station:wmo:42395:1,2017-05-05T18:20:00Z,26.4040,-90.7920,22.8,11111222 
ADCP,ioos:station:wmo:42395:1,2017-05-05T19:00:00Z,26.4040,-90.7920,22.8,11111222 
ADCP,ioos:station:wmo:42395:1,2017-05-05T19:20:00Z,26.4040,-90.7920,22.9,11111222 
ADCP,ioos:station:wmo:42395:1,2017-05-05T19:40:00Z,26.4040,-90.7920,23.0,11111222 
ADCP,ioos:station:wmo:42395:1,2017-05-05T20:20:00Z,26.4040,-90.7920,23.1,11111222 
ADCP,ioos:station:wmo:42395:1,2017-05-05T21:00:00Z,26.4040,-90.7920,22.9,11111222 
ADCP,ioos:station:wmo:42395:1,2017-05-05T21:20:00Z,26.4040,-90.7920,23.0,11111222 
ADCP,ioos:station:wmo:42395:1,2017-05-05T21:40:00Z,26.4040,-90.7920,22.9,11111222 
ADCP,ioos:station:wmo:42395:1,2017-05-05T22:00:00Z,26.4040,-90.7920,23.0,11111222 
ADCP,ioos:station:wmo:42395:1,2017-05-05T22:20:00Z,26.4040,-90.7920,22.9,11111222 
ADCP,ioos:station:wmo:42395:1,2017-05-05T22:40:00Z,26.4040,-90.7920,22.9,11111222 
ADCP,ioos:station:wmo:42395:1,2017-05-05T23:20:00Z,26.4040,-90.7920,22.8,11111222 
ADCP,ioos:station:wmo:42395:1,2017-05-05T23:40:00Z,26.4040,-90.7920,22.8,11111222 
ADCP,ioos:station:wmo:42395:1,2017-05-06T00:00:00Z,26.4040,-90.7920,22.7,11111222 
ADCP,ioos:station:wmo:42395:1,2017-05-06T00:20:00Z,26.4040,-90.7920,22.6,11111222 
ADCP,ioos:station:wmo:42395:1,2017-05-06T00:40:00Z,26.4040,-90.7920,22.4,11111222 
ADCP,ioos:station:wmo:42395:1,2017-05-06T01:40:00Z,26.4040,-90.7920,22.3,11111222 
ADCP,ioos:station:wmo:42395:1,2017-05-06T02:00:00Z,26.4040,-90.7920,22.4,11111222 
ADCP,ioos:station:wmo:42395:1,2017-05-06T02:20:00Z,26.4040,-90.7920,22.3,11111222 
ADCP,ioos:station:wmo:42395:1,2017-05-06T02:40:00Z,26.4040,-90.7920,22.3,11111222 
ADCP,ioos:station:wmo:42395:1,2017-05-06T03:40:00Z,26.4040,-90.7920,22.4,11111222 